This is the latest recevied weather packets stored in our database for station/object SP9UVG-13. If no packets are shown the sender has not sent any weather packets the latest 10 day(s).
| Time | Temp. | Humidity | Pressure | Rain* | Wind** | Luminosity | Snow |
|---|---|---|---|---|---|---|---|
| 1787841783 | 23.33° C | 46% | 1006 hPa | 0 mm | - | - | - |
| 1787841243 | 23.33° C | 46% | 1006.1 hPa | 0 mm | - | - | - |
| 1787840702 | 23.33° C | 45% | 1005.9 hPa | 0 mm | - | - | - |
| 1787840162 | 23.33° C | 45% | 1005.9 hPa | 0 mm | - | - | - |
| 1787839621 | 23.89° C | 44% | 1006.1 hPa | 0 mm | - | - | - |
| 1787839081 | 23.89° C | 45% | 1006 hPa | 0 mm | - | - | - |
| 1787838540 | 23.89° C | 45% | 1006 hPa | 0 mm | - | - | - |
| 1787837999 | 23.89° C | 44% | 1006.1 hPa | 0 mm | - | - | - |
| 1787836918 | 23.89° C | 44% | 1006.2 hPa | 0 mm | - | - | - |
| 1787836378 | 24.44° C | 43% | 1006.2 hPa | 0 mm | - | - | - |
| 1787835837 | 24.44° C | 43% | 1006.1 hPa | 0 mm | - | - | - |
| 1787835297 | 25° C | 42% | 1006.2 hPa | 0 mm | - | - | - |
| 1787834802 | 25° C | 42% | 1006.2 hPa | 0 mm | - | - | - |
| 1787834757 | 25° C | 42% | 1006.2 hPa | 0 mm | - | - | - |
| 1787834216 | 25° C | 41% | 1006.3 hPa | 0 mm | - | - | - |
| 1787833675 | 25° C | 41% | 1006.3 hPa | 0 mm | - | - | - |
| 1787833135 | 25.56° C | 40% | 1006.5 hPa | 0 mm | - | - | - |
| 1787832594 | 26.67° C | 37% | 1006.5 hPa | 0 mm | - | - | - |
| 1787832054 | 28.33° C | 34% | 1006.5 hPa | 0 mm | - | - | - |
| 1787831513 | 30° C | 33% | 1006.7 hPa | 0 mm | - | - | - |
| 1787830432 | 30° C | 33% | 1006.6 hPa | 0 mm | - | - | - |
| 1787829892 | 30.56° C | 33% | 1006.6 hPa | 0 mm | - | - | - |
| 1787829351 | 30.56° C | 33% | 1006.5 hPa | 0 mm | - | - | - |
| 1787828811 | 30° C | 33% | 1006.6 hPa | 0 mm | - | - | - |
| 1787827730 | 32.22° C | 30% | 1006.7 hPa | 0 mm | - | - | - |
* Rain latest hour (hover to see other rain measurements)
** Current wind speed in m/s (hover to see current wind gust speed)